• In Colombia
  • List of Countries
  • For 7 days
  • Water Temperature
  • Weather Map
  • Weather Widgets
  • user-avatar
    Login

    Hourly Weather Canberra

    Today, 21 January, Tuesday

    Time Temperature Precipitation Wind Pressure Humidity
    00:00 +15°C° 0 mm 2 mps 701 mmHg 76%
    01:00 +15°C° 0 mm 2 mps 701 mmHg 77%
    02:00 +14°C° 0 mm 2 mps 701 mmHg 80%
    03:00 +14°C° 0 mm 2 mps 701 mmHg 84%
    04:00 +14°C° 0 mm 2 mps 701 mmHg 89%
    05:00 +15°C° 0 mm 2 mps 702 mmHg 86%
    06:00 +16°C° 0 mm 2 mps 702 mmHg 83%
    07:00 +17°C° 0 mm 3 mps 703 mmHg 80%
    08:00 +19°C° 0 mm 3 mps 704 mmHg 71%
    09:00 +21°C° 0 mm 3 mps 704 mmHg 62%
    10:00 +24°C° 0 mm 3 mps 705 mmHg 53%
    11:00 +25°C° 0 mm 4 mps 705 mmHg 48%
    12:00 +26°C° 0 mm 4 mps 705 mmHg 44%
    13:00 +27°C° 0 mm 5 mps 705 mmHg 40%
    14:00 +27°C° 0 mm 5 mps 704 mmHg 40%
    15:00 +27°C° 0 mm 5 mps 704 mmHg 39%
    16:00 +27°C° 0 mm 5 mps 704 mmHg 39%
    17:00 +26°C° 0 mm 4 mps 704 mmHg 44%
    18:00 +25°C° 0 mm 3 mps 705 mmHg 48%
    19:00 +23°C° 0 mm 2 mps 705 mmHg 53%
    20:00 +21°C° 0 mm 2 mps 705 mmHg 58%
    21:00 +20°C° 0 mm 1 mps 705 mmHg 63%
    22:00 +17°C° 0 mm 0 mps 705 mmHg 69%
    23:00 +16°C° 0 mm 0 mps 705 mmHg 72%

    Tomorrow, 22 January, Wednesday

    Time Temperature Precipitation Wind Pressure Humidity
    00:00 +15°C° 0 mm 0 mps 705 mmHg 75%
    01:00 +15°C° 0 mm 0 mps 705 mmHg 79%
    02:00 +14°C° 0 mm 0 mps 705 mmHg 80%
    03:00 +14°C° 0 mm 0 mps 704 mmHg 81%
    04:00 +14°C° 0 mm 0 mps 704 mmHg 82%
    05:00 +15°C° 0 mm 0 mps 705 mmHg 74%
    06:00 +17°C° 0 mm 0 mps 705 mmHg 67%
    07:00 +20°C° 0 mm 1 mps 706 mmHg 59%
    08:00 +23°C° 0 mm 2 mps 706 mmHg 50%
    09:00 +25°C° 0 mm 3 mps 706 mmHg 40%
    10:00 +28°C° 0 mm 4 mps 706 mmHg 31%
    11:00 +29°C° 0 mm 5 mps 705 mmHg 28%
    12:00 +32°C° 0 mm 5 mps 705 mmHg 25%
    13:00 +33°C° 0 mm 6 mps 704 mmHg 23%
    14:00 +33°C° 0 mm 6 mps 704 mmHg 22%
    15:00 +34°C° 0 mm 6 mps 703 mmHg 21%
    16:00 +34°C° 0 mm 6 mps 702 mmHg 20%
    17:00 +32°C° 0 mm 5 mps 702 mmHg 22%
    18:00 +30°C° 0 mm 4 mps 702 mmHg 25%
    19:00 +28°C° 0 mm 3 mps 702 mmHg 27%
    20:00 +27°C° 0 mm 3 mps 702 mmHg 28%
    21:00 +26°C° 0 mm 3 mps 701 mmHg 29%
    22:00 +25°C° 0 mm 3 mps 701 mmHg 30%
    23:00 +25°C° 0 mm 3 mps 701 mmHg 29%

    Day after tomorrow, 23 January, Thursday

    Time Temperature Precipitation Wind Pressure Humidity
    00:00 +24°C° 0 mm 3 mps 700 mmHg 29%
    01:00 +24°C° 0 mm 3 mps 700 mmHg 28%
    02:00 +24°C° 0 mm 3 mps 699 mmHg 27%
    03:00 +23°C° 0 mm 4 mps 699 mmHg 26%
    04:00 +23°C° 0 mm 4 mps 698 mmHg 24%
    05:00 +25°C° 0 mm 5 mps 698 mmHg 24%
    06:00 +26°C° 0 mm 6 mps 699 mmHg 23%
    07:00 +27°C° 0 mm 7 mps 699 mmHg 22%
    08:00 +29°C° 0 mm 8 mps 699 mmHg 22%
    09:00 +31°C° 0 mm 10 mps 700 mmHg 22%
    10:00 +33°C° 0 mm 11 mps 700 mmHg 22%
    11:00 +32°C° 0 mm 11 mps 700 mmHg 27%
    12:00 +31°C° 0 mm 12 mps 700 mmHg 32%
    13:00 +31°C° 0 mm 12 mps 699 mmHg 37%
    14:00 +31°C° 0 mm 11 mps 700 mmHg 35%
    15:00 +31°C° 0 mm 10 mps 700 mmHg 34%
    16:00 +31°C° 0 mm 9 mps 700 mmHg 32%
    17:00 +28°C° 0 mm 8 mps 700 mmHg 34%
    18:00 +24°C° 0 mm 7 mps 700 mmHg 36%
    19:00 +22°C° 0 mm 5 mps 701 mmHg 38%
    20:00 +21°C° 0 mm 4 mps 701 mmHg 42%
    21:00 +19°C° 0 mm 3 mps 702 mmHg 47%
    22:00 +18°C° 0 mm 2 mps 702 mmHg 51%
    23:00 +18°C° 0 mm 1 mps 702 mmHg 53%

    24 January, Friday

    Time Temperature Precipitation Wind Pressure Humidity
    00:00 +18°C° 0 mm 1 mps 702 mmHg 55%
    01:00 +16°C° 0 mm 1 mps 702 mmHg 57%
    02:00 +16°C° 0 mm 1 mps 702 mmHg 58%
    03:00 +15°C° 0 mm 1 mps 702 mmHg 60%
    04:00 +15°C° 0 mm 1 mps 702 mmHg 62%
    05:00 +16°C° 0 mm 2 mps 703 mmHg 56%
    06:00 +17°C° 0 mm 2 mps 703 mmHg 51%
    07:00 +19°C° 0 mm 3 mps 704 mmHg 45%
    08:00 +21°C° 0 mm 4 mps 704 mmHg 40%
    09:00 +23°C° 0 mm 6 mps 705 mmHg 34%
    10:00 +26°C° 0 mm 7 mps 705 mmHg 29%
    11:00 +27°C° 0 mm 7 mps 705 mmHg 25%
    12:00 +28°C° 0 mm 7 mps 705 mmHg 22%
    13:00 +29°C° 0 mm 7 mps 705 mmHg 18%
    14:00 +29°C° 0 mm 6 mps 704 mmHg 18%
    15:00 +29°C° 0 mm 6 mps 704 mmHg 19%
    16:00 +29°C° 0 mm 5 mps 704 mmHg 19%
    17:00 +27°C° 0 mm 4 mps 704 mmHg 23%
    18:00 +25°C° 0 mm 3 mps 705 mmHg 28%
    19:00 +23°C° 0 mm 2 mps 705 mmHg 32%
    20:00 +20°C° 0 mm 2 mps 706 mmHg 45%
    21:00 +18°C° 0 mm 2 mps 706 mmHg 58%
    22:00 +16°C° 0 mm 2 mps 706 mmHg 70%
    23:00 +16°C° 0 mm 1 mps 706 mmHg 78%

    25 January, Saturday

    Time Temperature Precipitation Wind Pressure Humidity
    00:00 +16°C° 0 mm 1 mps 706 mmHg 85%
    01:00 +15°C° 0 mm 1 mps 706 mmHg 92%
    02:00 +16°C° 0 mm 1 mps 706 mmHg 91%
    03:00 +15°C° 0 mm 0 mps 706 mmHg 90%
    04:00 +15°C° 0 mm 0 mps 706 mmHg 89%
    05:00 +16°C° 0 mm 0 mps 706 mmHg 83%
    06:00 +17°C° 0 mm 0 mps 707 mmHg 77%
    07:00 +17°C° 0 mm 0 mps 707 mmHg 71%
    08:00 +22°C° 0 mm 1 mps 707 mmHg 56%
    09:00 +25°C° 0 mm 2 mps 707 mmHg 42%
    10:00 +27°C° 0 mm 2 mps 707 mmHg 27%
    11:00 +29°C° 0 mm 3 mps 707 mmHg 24%
    12:00 +31°C° 0 mm 3 mps 707 mmHg 20%
    13:00 +33°C° 0 mm 3 mps 707 mmHg 16%
    14:00 +33°C° 0 mm 4 mps 706 mmHg 16%
    15:00 +33°C° 0 mm 4 mps 706 mmHg 16%
    16:00 +33°C° 0 mm 4 mps 706 mmHg 16%
    17:00 +30°C° 0 mm 4 mps 706 mmHg 20%
    18:00 +28°C° 0 mm 3 mps 706 mmHg 24%
    19:00 +26°C° 0 mm 2 mps 706 mmHg 28%
    20:00 +24°C° 0 mm 2 mps 706 mmHg 42%
    21:00 +21°C° 0 mm 2 mps 706 mmHg 55%
    22:00 +18°C° 0 mm 2 mps 707 mmHg 68%
    23:00 +18°C° 0 mm 2 mps 706 mmHg 75%

    26 January, Sunday

    Time Temperature Precipitation Wind Pressure Humidity
    00:00 +18°C° 0 mm 1 mps 706 mmHg 82%
    01:00 +18°C° 0 mm 1 mps 706 mmHg 89%
    02:00 +16°C° 0 mm 1 mps 706 mmHg 89%
    03:00 +15°C° 0 mm 0 mps 705 mmHg 89%
    04:00 +15°C° 0 mm 0 mps 705 mmHg 89%
    05:00 +16°C° 0 mm 0 mps 706 mmHg 81%
    06:00 +18°C° 0 mm 0 mps 706 mmHg 74%
    07:00 +19°C° 0 mm 0 mps 707 mmHg 67%
    08:00 +24°C° 0 mm 2 mps 707 mmHg 52%
    09:00 +27°C° 0 mm 3 mps 707 mmHg 38%
    10:00 +30°C° 0 mm 5 mps 708 mmHg 23%
    11:00 +32°C° 0 mm 5 mps 707 mmHg 21%
    12:00 +33°C° 0 mm 5 mps 707 mmHg 18%
    13:00 +35°C° 0 mm 5 mps 707 mmHg 16%
    14:00 +35°C° 0 mm 5 mps 706 mmHg 15%
    15:00 +35°C° 0 mm 5 mps 706 mmHg 14%
    16:00 +35°C° 0 mm 4 mps 706 mmHg 14%
    17:00 +33°C° 0 mm 3 mps 706 mmHg 18%
    18:00 +30°C° 0 mm 3 mps 706 mmHg 21%
    19:00 +28°C° 0 mm 2 mps 706 mmHg 25%
    20:00 +26°C° 0 mm 1 mps 706 mmHg 31%
    21:00 +24°C° 0 mm 1 mps 706 mmHg 36%
    22:00 +22°C° 0 mm 1 mps 707 mmHg 42%
    23:00 +21°C° 0 mm 1 mps 706 mmHg 49%
    Show more